Time,TemperatureF,DewpointF,PressureIn,WindDirection,WindDirectionDegrees,WindSpeedMPH,WindSpeedGustMPH,Humidity,HourlyPrecipIn,Conditions,Clouds,dailyrainin,SoftwareType,DateUTC
2013-06-06 00:03:00,74.0,74.0,29.93,ENE,58,0.0,0.0,100,0.00,,,0.43,,2013-06-06 04:03:00,
2013-06-06 00:13:00,74.0,74.0,29.93,ENE,58,0.0,0.0,100,0.00,,,0.43,,2013-06-06 04:13:00,
2013-06-06 00:23:00,74.0,74.0,29.93,ENE,58,0.0,0.0,100,0.00,,,0.43,,2013-06-06 04:23:00,
2013-06-06 00:33:00,74.0,74.0,29.93,ENE,58,0.0,0.0,100,0.00,,,3.39,,2013-06-06 04:33:00,
2013-06-06 00:42:00,74.0,74.0,29.93,ENE,58,0.0,0.0,100,0.00,,,3.39,,2013-06-06 04:42:00,
2013-06-06 00:53:00,74.0,74.0,29.93,ENE,58,0.0,0.0,100,0.00,,,3.39,,2013-06-06 04:53:00,
2013-06-06 01:02:00,74.0,74.0,29.93,ENE,58,0.0,0.0,100,0.00,,,3.39,,2013-06-06 05:02:00,
2013-06-06 01:12:00,74.0,74.0,29.93,ENE,58,0.0,0.0,100,0.00,,,3.39,,2013-06-06 05:12:00,
2013-06-06 01:22:00,74.0,74.0,29.93,ENE,58,0.0,0.0,100,0.00,,,3.39,,2013-06-06 05:22:00,
2013-06-06 01:32:00,74.0,74.0,29.92,ENE,58,0.0,0.0,100,0.00,,,3.39,,2013-06-06 05:32:00,
2013-06-06 01:42:00,74.0,74.0,29.92,ENE,58,0.0,0.0,100,0.00,,,3.39,,2013-06-06 05:42:00,
2013-06-06 01:52:00,74.0,74.0,29.91,ENE,58,0.0,0.0,100,0.00,,,3.39,,2013-06-06 05:52:00,
2013-06-06 02:02:00,74.0,74.0,29.91,ENE,58,0.0,0.0,100,0.00,,,3.39,,2013-06-06 06:02:00,
2013-06-06 02:12:00,74.0,74.0,29.90,ENE,58,0.0,0.0,100,0.00,,,3.39,,2013-06-06 06:12:00,
2013-06-06 02:22:00,74.0,74.0,29.90,ENE,58,0.0,0.0,100,0.00,,,3.39,,2013-06-06 06:22:00,
2013-06-06 02:32:00,74.0,74.0,29.90,ENE,58,0.0,0.0,100,0.01,,,3.39,,2013-06-06 06:32:00,
2013-06-06 02:42:00,74.0,74.0,29.90,ENE,58,0.0,0.0,100,0.01,,,3.39,,2013-06-06 06:42:00,
2013-06-06 02:52:00,74.0,74.0,29.89,ENE,58,0.0,0.0,100,0.01,,,3.39,,2013-06-06 06:52:00,
2013-06-06 03:02:00,74.0,74.0,29.89,ENE,58,0.0,0.0,100,0.01,,,3.39,,2013-06-06 07:02:00,
2013-06-06 03:12:00,74.0,74.0,29.89,ENE,58,0.0,0.0,100,0.01,,,3.39,,2013-06-06 07:12:00,
2013-06-06 03:22:00,74.0,74.0,29.88,ENE,58,0.0,0.0,100,0.01,,,3.39,,2013-06-06 07:22:00,
2013-06-06 03:32:00,74.0,74.0,29.88,ENE,58,0.0,0.0,100,0.01,,,3.39,,2013-06-06 07:32:00,
2013-06-06 03:42:00,74.0,74.0,29.88,ENE,58,0.0,0.0,100,0.01,,,3.39,,2013-06-06 07:42:00,
2013-06-06 03:52:00,74.0,74.0,29.87,ENE,58,0.0,0.0,100,0.01,,,3.39,,2013-06-06 07:52:00,
2013-06-06 04:02:00,74.0,74.0,29.86,ENE,58,0.0,0.0,100,0.01,,,3.39,,2013-06-06 08:02:00,
2013-06-06 04:12:00,74.0,74.0,29.86,ENE,58,0.0,0.0,100,0.01,,,3.39,,2013-06-06 08:12:00,
2013-06-06 04:22:00,74.0,74.0,29.86,ENE,58,0.0,0.0,100,0.01,,,3.39,,2013-06-06 08:22:00,
2013-06-06 04:32:00,73.0,73.0,29.85,ENE,58,0.0,0.0,100,0.05,,,3.39,,2013-06-06 08:32:00,
2013-06-06 04:42:00,73.0,73.0,29.85,ENE,58,0.0,0.0,100,0.05,,,3.39,,2013-06-06 08:42:00,
2013-06-06 04:52:00,73.0,73.0,29.85,ENE,58,0.0,0.0,100,0.05,,,3.39,,2013-06-06 08:52:00,
2013-06-06 05:02:00,74.0,74.0,29.84,ENE,58,0.0,0.0,100,0.05,,,3.39,,2013-06-06 09:02:00,
2013-06-06 05:12:00,74.0,74.0,29.84,ENE,58,0.0,0.0,100,0.05,,,3.39,,2013-06-06 09:12:00,
2013-06-06 05:22:00,74.0,74.0,29.84,ENE,58,0.0,0.0,100,0.05,,,3.39,,2013-06-06 09:22:00,
2013-06-06 05:33:00,74.0,74.0,29.84,ENE,58,0.0,0.0,100,0.03,,,3.39,,2013-06-06 09:33:00,
2013-06-06 05:43:00,74.0,74.0,29.84,ENE,58,0.0,0.0,100,0.03,,,3.39,,2013-06-06 09:43:00,
2013-06-06 05:53:00,74.0,74.0,29.84,ENE,58,0.0,0.0,100,0.03,,,3.39,,2013-06-06 09:53:00,
2013-06-06 06:03:00,74.0,74.0,29.83,ENE,58,0.0,0.0,100,0.03,,,3.39,,2013-06-06 10:03:00,
2013-06-06 06:12:00,73.0,73.0,29.84,ENE,58,0.0,0.0,100,0.03,,,3.39,,2013-06-06 10:12:00,
2013-06-06 06:23:00,73.0,73.0,29.84,ENE,58,0.0,0.0,100,0.03,,,3.39,,2013-06-06 10:23:00,
2013-06-06 06:33:00,73.0,73.0,29.84,ENE,58,0.0,0.0,100,0.10,,,3.39,,2013-06-06 10:33:00,
2013-06-06 06:42:00,73.0,73.0,29.85,ENE,58,0.0,0.0,100,0.10,,,3.39,,2013-06-06 10:42:00,
2013-06-06 06:53:00,73.0,73.0,29.85,ENE,58,0.0,0.0,100,0.10,,,3.39,,2013-06-06 10:53:00,
2013-06-06 07:02:00,73.0,73.0,29.84,ENE,58,0.0,0.0,100,0.10,,,3.39,,2013-06-06 11:02:00,
2013-06-06 07:12:00,73.0,73.0,29.84,ENE,58,0.0,0.0,100,0.10,,,3.39,,2013-06-06 11:12:00,
2013-06-06 07:22:00,73.0,73.0,29.83,ENE,58,0.0,0.0,100,0.17,,,3.39,,2013-06-06 11:22:00,
2013-06-06 07:32:00,73.0,73.0,29.83,ENE,58,0.0,0.0,100,0.17,,,3.39,,2013-06-06 11:32:00,
2013-06-06 07:42:00,73.0,73.0,29.83,ENE,58,0.0,0.0,100,0.17,,,3.39,,2013-06-06 11:42:00,
2013-06-06 07:52:00,72.0,72.0,29.84,NE,44,0.0,0.0,100,0.17,,,3.39,,2013-06-06 11:52:00,
2013-06-06 08:03:00,72.0,72.0,29.85,NE,44,0.0,0.0,100,0.17,,,3.39,,2013-06-06 12:03:00,
2013-06-06 08:12:00,72.0,72.0,29.85,NE,44,0.0,0.0,100,0.17,,,3.39,,2013-06-06 12:12:00,
2013-06-06 08:23:00,72.0,72.0,29.84,East,100,0.0,0.0,100,0.77,,,3.39,,2013-06-06 12:23:00,
2013-06-06 08:33:00,72.0,72.0,29.85,East,100,0.0,0.0,100,0.77,,,3.39,,2013-06-06 12:33:00,
2013-06-06 08:43:00,73.0,73.0,29.81,ENE,59,0.0,0.0,100,0.77,,,3.39,,2013-06-06 12:43:00,
2013-06-06 08:53:00,73.0,73.0,29.81,ENE,59,0.0,0.0,100,0.77,,,3.39,,2013-06-06 12:53:00,
2013-06-06 09:03:00,73.0,73.0,29.85,ENE,59,0.0,0.0,100,0.77,,,3.39,,2013-06-06 13:03:00,
2013-06-06 09:13:00,72.0,72.0,29.85,ENE,59,0.0,0.0,100,0.35,,,3.39,,2013-06-06 13:13:00,
2013-06-06 09:23:00,72.0,72.0,29.85,ENE,59,0.0,0.0,100,0.35,,,3.39,,2013-06-06 13:23:00,
2013-06-06 09:33:00,72.0,72.0,29.85,ENE,59,0.0,0.0,100,0.35,,,3.39,,2013-06-06 13:33:00,
2013-06-06 09:43:00,72.0,72.0,29.85,ENE,59,0.0,0.0,100,0.35,,,3.39,,2013-06-06 13:43:00,
2013-06-06 09:53:00,72.0,72.0,29.85,ENE,59,0.0,0.0,100,0.35,,,3.39,,2013-06-06 13:53:00,
2013-06-06 10:03:00,72.0,72.0,29.83,ENE,59,0.0,0.0,100,0.35,,,3.39,,2013-06-06 14:03:00,
2013-06-06 10:13:00,73.0,73.0,29.83,ENE,59,0.0,0.0,100,0.35,,,3.39,,2013-06-06 14:13:00,
2013-06-06 10:23:00,73.0,73.0,29.83,ENE,59,0.0,0.0,100,0.35,,,3.39,,2013-06-06 14:23:00,
2013-06-06 10:33:00,73.0,73.0,29.83,ENE,59,0.0,0.0,100,0.05,,,3.39,,2013-06-06 14:33:00,
2013-06-06 10:43:00,73.0,73.0,29.83,ENE,59,0.0,0.0,100,0.05,,,3.39,,2013-06-06 14:43:00,
2013-06-06 10:53:00,73.0,73.0,29.82,ENE,59,0.0,0.0,100,0.05,,,3.39,,2013-06-06 14:53:00,
2013-06-06 11:03:00,73.0,73.0,29.82,ENE,59,0.0,0.0,100,0.05,,,3.39,,2013-06-06 15:03:00,
2013-06-06 11:13:00,73.0,73.0,29.83,ENE,59,0.0,0.0,100,0.05,,,3.39,,2013-06-06 15:13:00,
2013-06-06 11:23:00,73.0,73.0,29.83,ENE,59,0.0,0.0,100,0.05,,,3.39,,2013-06-06 15:23:00,
2013-06-06 11:33:00,73.0,73.0,29.83,ENE,59,0.0,0.0,100,0.14,,,3.39,,2013-06-06 15:33:00,
2013-06-06 11:43:00,73.0,73.0,29.83,ENE,59,0.0,0.0,100,0.14,,,3.39,,2013-06-06 15:43:00,
2013-06-06 11:53:00,73.0,73.0,29.82,ENE,59,0.0,0.0,100,0.14,,,3.39,,2013-06-06 15:53:00,
2013-06-06 12:03:00,74.0,74.0,29.81,ENE,59,0.0,0.0,100,0.14,,,3.39,,2013-06-06 16:03:00,
2013-06-06 12:13:00,74.0,74.0,29.81,ENE,59,0.0,0.0,100,0.14,,,3.39,,2013-06-06 16:13:00,
2013-06-06 12:23:00,74.0,74.0,29.80,ENE,59,0.0,0.0,100,0.14,,,3.39,,2013-06-06 16:23:00,
2013-06-06 12:33:00,74.0,74.0,29.80,ENE,59,0.0,0.0,100,0.84,,,3.39,,2013-06-06 16:33:00,
2013-06-06 12:44:00,74.0,74.0,29.80,ENE,59,0.0,0.0,100,0.84,,,3.39,,2013-06-06 16:44:00,
2013-06-06 12:53:00,74.0,74.0,29.79,ENE,59,0.0,0.0,100,0.84,,,3.39,,2013-06-06 16:53:00,
2013-06-06 13:03:00,75.0,75.0,29.78,ENE,59,0.0,0.0,100,0.84,,,3.39,,2013-06-06 17:03:00,
2013-06-06 13:13:00,75.0,75.0,29.77,ENE,59,0.0,0.0,100,0.84,,,3.39,,2013-06-06 17:13:00,
2013-06-06 13:23:00,75.0,75.0,29.77,ENE,59,0.0,0.0,100,0.84,,,3.39,,2013-06-06 17:23:00,
2013-06-06 13:33:00,75.0,75.0,29.76,ENE,59,0.0,0.0,100,0.27,,,3.39,,2013-06-06 17:33:00,
2013-06-06 13:43:00,75.0,75.0,29.76,ENE,59,0.0,0.0,100,0.27,,,3.39,,2013-06-06 17:43:00,
2013-06-06 13:53:00,76.0,76.0,29.75,ENE,59,0.0,0.0,100,0.27,,,3.39,,2013-06-06 17:53:00,
2013-06-06 14:03:00,76.0,76.0,29.75,ENE,59,0.0,0.0,100,0.27,,,3.39,,2013-06-06 18:03:00,
2013-06-06 14:13:00,76.0,76.0,29.75,ENE,59,0.0,0.0,100,0.27,,,3.39,,2013-06-06 18:13:00,
2013-06-06 14:23:00,76.0,76.0,29.75,ENE,59,0.0,0.0,100,0.27,,,3.39,,2013-06-06 18:23:00,
2013-06-06 14:33:00,76.0,76.0,29.73,ENE,59,0.0,0.0,100,0.15,,,3.39,,2013-06-06 18:33:00,
2013-06-06 14:43:00,76.0,76.0,29.73,ENE,59,0.0,0.0,100,0.15,,,3.39,,2013-06-06 18:43:00,
2013-06-06 14:53:00,76.0,76.0,29.74,ENE,77,7.0,7.0,100,0.15,,,3.39,,2013-06-06 18:53:00,
2013-06-06 15:03:00,77.0,77.0,29.73,SE,145,0.0,3.0,100,0.15,,,3.39,,2013-06-06 19:03:00,
2013-06-06 15:13:00,77.0,77.0,29.72,SE,125,5.0,8.0,100,0.15,,,3.39,,2013-06-06 19:13:00,
2013-06-06 15:23:00,77.0,77.0,29.72,SE,125,5.0,8.0,100,0.15,,,3.39,,2013-06-06 19:23:00,
2013-06-06 15:33:00,77.0,77.0,29.71,ESE,103,0.0,7.0,100,0.02,,,3.39,,2013-06-06 19:33:00,
2013-06-06 15:43:00,77.0,77.0,29.71,ESE,103,0.0,7.0,100,0.02,,,3.39,,2013-06-06 19:43:00,
2013-06-06 15:53:00,77.0,77.0,29.71,North,359,2.0,0.0,100,0.02,,,3.39,,2013-06-06 19:53:00,
2013-06-06 16:03:00,77.0,77.0,29.71,North,359,0.0,0.0,100,0.02,,,3.39,,2013-06-06 20:03:00,
2013-06-06 16:13:00,77.0,77.0,29.71,North,359,0.0,0.0,100,0.02,,,3.39,,2013-06-06 20:13:00,
2013-06-06 16:23:00,76.0,75.0,29.71,North,359,5.0,0.0,96,0.02,,,3.39,,2013-06-06 20:23:00,
2013-06-06 16:33:00,77.0,75.0,29.70,North,359,0.0,0.0,95,0.01,,,3.39,,2013-06-06 20:33:00,
2013-06-06 16:42:00,77.0,75.0,29.70,North,359,0.0,0.0,95,0.01,,,3.39,,2013-06-06 20:42:00,
2013-06-06 16:53:00,77.0,73.0,29.70,SSE,158,8.0,0.0,88,0.01,,,3.39,,2013-06-06 20:53:00,
2013-06-06 17:03:00,77.0,71.0,29.70,ESE,110,8.0,9.0,81,0.01,,,3.39,,2013-06-06 21:03:00,
2013-06-06 17:13:00,76.0,70.0,29.70,SSE,148,0.0,0.0,81,0.01,,,3.39,,2013-06-06 21:13:00,
2013-06-06 17:23:00,76.0,70.0,29.70,SSE,148,0.0,0.0,81,0.01,,,3.39,,2013-06-06 21:23:00,
2013-06-06 17:33:00,76.0,69.0,29.70,SSE,148,0.0,0.0,80,0.00,,,3.39,,2013-06-06 21:33:00,
2013-06-06 17:44:00,76.0,69.0,29.70,SSE,148,0.0,0.0,80,0.00,,,3.39,,2013-06-06 21:44:00,
2013-06-06 17:53:00,76.0,69.0,29.70,South,170,10.0,10.0,80,0.00,,,3.39,,2013-06-06 21:53:00,
2013-06-06 18:03:00,76.0,70.0,29.69,North,359,0.0,0.0,82,0.00,,,3.39,,2013-06-06 22:03:00,
2013-06-06 18:13:00,76.0,70.0,29.69,North,359,0.0,0.0,83,0.00,,,3.39,,2013-06-06 22:13:00,
2013-06-06 18:23:00,76.0,70.0,29.69,North,359,0.0,0.0,83,0.00,,,3.39,,2013-06-06 22:23:00,
2013-06-06 18:33:00,76.0,71.0,29.69,North,359,0.0,0.0,84,0.00,,,3.39,,2013-06-06 22:33:00,
2013-06-06 18:43:00,76.0,71.0,29.69,North,359,0.0,0.0,84,0.00,,,3.39,,2013-06-06 22:43:00,
2013-06-06 18:53:00,76.0,72.0,29.69,North,359,3.0,0.0,86,0.00,,,3.39,,2013-06-06 22:53:00,
2013-06-06 19:02:00,75.0,72.0,29.69,SE,128,0.0,0.0,91,0.00,,,3.39,,2013-06-06 23:02:00,
2013-06-06 19:13:00,75.0,72.0,29.69,SE,128,0.0,0.0,91,0.00,,,3.39,,2013-06-06 23:13:00,
2013-06-06 19:22:00,75.0,73.0,29.68,North,359,2.0,3.0,95,0.00,,,3.39,,2013-06-06 23:22:00,
2013-06-06 19:33:00,75.0,74.0,29.67,SSE,149,0.0,0.0,97,0.00,,,3.39,,2013-06-06 23:33:00,
2013-06-06 19:43:00,75.0,74.0,29.67,SSE,149,0.0,0.0,97,0.00,,,3.39,,2013-06-06 23:43:00,
2013-06-06 19:52:00,75.0,74.0,29.69,SSE,159,7.0,7.0,98,0.00,,,3.39,,2013-06-06 23:52:00,
2013-06-06 20:02:00,74.0,74.0,29.69,SSW,195,0.0,0.0,99,0.00,,,3.39,,2013-06-07 00:02:00,
2013-06-06 20:12:00,74.0,74.0,29.69,SSW,195,0.0,0.0,99,0.00,,,3.39,,2013-06-07 00:12:00,
2013-06-06 20:22:00,74.0,74.0,29.69,North,359,0.0,0.0,100,0.01,,,3.39,,2013-06-07 00:22:00,
2013-06-06 20:32:00,74.0,74.0,29.70,North,359,0.0,0.0,100,0.01,,,3.39,,2013-06-07 00:32:00,
2013-06-06 20:42:00,74.0,74.0,29.70,North,359,0.0,0.0,100,0.01,,,3.39,,2013-06-07 00:42:00,
2013-06-06 20:52:00,74.0,74.0,29.71,North,359,0.0,0.0,100,0.01,,,3.39,,2013-06-07 00:52:00,
2013-06-06 21:03:00,75.0,75.0,29.71,North,359,0.0,0.0,100,0.01,,,3.39,,2013-06-07 01:03:00,
2013-06-06 21:12:00,75.0,75.0,29.72,North,359,0.0,0.0,100,0.00,,,3.39,,2013-06-07 01:12:00,
2013-06-06 21:22:00,75.0,75.0,29.72,North,359,0.0,0.0,100,0.00,,,3.39,,2013-06-07 01:22:00,
2013-06-06 21:32:00,75.0,75.0,29.73,North,359,0.0,0.0,100,0.00,,,3.39,,2013-06-07 01:32:00,
2013-06-06 21:42:00,75.0,75.0,29.73,North,359,0.0,0.0,100,0.00,,,3.39,,2013-06-07 01:42:00,
2013-06-06 21:52:00,75.0,75.0,29.73,North,359,0.0,0.0,100,0.00,,,3.39,,2013-06-07 01:52:00,
2013-06-06 22:02:00,74.0,74.0,29.74,North,359,0.0,0.0,100,0.00,,,3.39,,2013-06-07 02:02:00,
2013-06-06 22:12:00,74.0,74.0,29.74,North,359,0.0,0.0,100,0.00,,,3.39,,2013-06-07 02:12:00,
2013-06-06 22:22:00,74.0,74.0,29.75,North,359,0.0,0.0,100,0.00,,,3.39,,2013-06-07 02:22:00,
2013-06-06 22:32:00,75.0,75.0,29.76,North,359,0.0,0.0,100,0.00,,,3.39,,2013-06-07 02:32:00,
2013-06-06 22:42:00,75.0,75.0,29.76,North,359,0.0,0.0,100,0.00,,,3.39,,2013-06-07 02:42:00,
2013-06-06 22:52:00,75.0,75.0,29.76,North,359,0.0,0.0,100,0.00,,,3.39,,2013-06-07 02:52:00,
2013-06-06 23:02:00,75.0,75.0,29.77,North,359,0.0,0.0,100,0.00,,,3.39,,2013-06-07 03:02:00,
2013-06-06 23:12:00,75.0,75.0,29.77,North,359,0.0,0.0,100,0.00,,,3.39,,2013-06-07 03:12:00,
2013-06-06 23:22:00,75.0,75.0,29.77,North,359,0.0,0.0,100,0.00,,,3.39,,2013-06-07 03:22:00,
2013-06-06 23:33:00,75.0,75.0,29.77,North,359,0.0,0.0,99,0.00,,,3.39,,2013-06-07 03:33:00,
2013-06-06 23:44:00,75.0,75.0,29.77,North,359,0.0,0.0,99,0.00,,,3.39,,2013-06-07 03:44:00,
2013-06-06 23:53:00,75.0,75.0,29.78,North,359,0.0,0.0,99,0.00,,,3.39,,2013-06-07 03:53:00,